Temperature
18 18 18 18 18 18 18 18 18 18 18 18 18 18 18 18 18 18 18 18 18 18 18 18 18 18 18 18 17 17 17 17 17 17 17 17 17 17 17 16 16 16 16
18 18 18 18 18 18 18 18 18 18 18 18 18 18 18 18 18 18 18 18 18 18 18 18 18 18 18 18 17 17 17 17 17 17 17 17 17 17 17 16 16 16 16
18 18 18 18 18 18 18 18 18 18 18 18 18 18 18 18 18 18 18 18 18 18 18 18 18 18 18 18 17 17 17 17 17 17 17 17 17 17 17 16 16 16 16
18 18 18 18 18 18 18 18 18 18 18 18 18 18 18 18 18 18 18 18 18 18 18 18 18 17 18 17 17 17 17 17 17 17 17 17 17 17 16 16 16 16 16
18 18 18 18 18 18 18 18 18 18 18 18 18 18 18 18 18 18 18 18 18 18 18 17 17 17 17 17 17 17 17 17 17 17 17 17 17 17 16 16 16 16 16
18 18 18 18 18 18 18 18 18 18 18 18 18 18 18 18 18 18 18 18 18 17 17 17 17 17 17 17 17 17 17 17 17 17 17 17 17 17 16 16 16 16 16
18 18 18 18 17 17 17 17 18 18 18 18 18 18 18 18 18 18 18 18 18 17 17 17 17 17 17 17 17 17 17 17 17 17 17 17 17 17 16 16 16 16 16
17 17 17 17 17 17 17 17 17 17 17 17 17 17 18 18 18 18 18 18 17 17 17 17 17 17 17 17 17 17 17 17 17 16 16 16 17 16 16 16 16 16 16
17 17 17 17 17 17 17 17 17 17 17 17 17 17 17 17 18 18 18 17 17 17 17 17 17 17 17 17 17 17 17 16 16 16 16 16 16 16 16 16 16 16 16
17 17 17 17 17 17 17 17 17 17 17 17 17 17 17 17 17 17 17 17 17 17 17 17 17 17 17 16 16 16 16 16 16 16 16 16 16 16 16 16 16 16 15
17 17 17 17 17 17 17 17 17 17 17 17 17 17 17 17 17 17 17 17 17 17 17 17 17 17 16 16 16 16 16 16 16 16 16 16 16 16 16 16 16 16 15
17 17 17 17 17 17 17 17 17 17 17 17 17 17 17 17 17 17 17 17 17 17 17 16 16 16 16 16 16 16 16 16 16 16 16 16 16 16 16 15 15 15 15
17 17 17 17 17 17 17 16 16 16 16 16 16 16 16 16 16 16 16 16 16 16 16 16 16 16 16 16 16 16 16 16 16 16 15 15 15 15 15 15 15 15 15
17 17 17 17 16 16 16 16 16 16 16 16 16 16 16 16 16 16 16 16 16 16 16 16 16 16 16 16 16 16 15 15 15 15 15 15 15 15 15 15 15 15 15
16 16 16 16 16 16 16 16 16 16 16 16 16 16 16 16 16 16 16 16 16 16 16 16 16 16 15 15 15 15 15 15 15 15 15 15 15 15 15 15 15 15 15
16 16 16 16 16 16 16 16 16 16 16 15 15 16 16 15 15 16 16 16 16 16 15 15 15 15 15 15 15 15 15 15 15 15 15 15 15 15 15 15 15 15 15
16 16 16 16 16 15 15 15 16 15 15 15 15 15 15 15 15 15 15 15 15 15 15 15 15 15 15 15 15 15 15 14 14 14 14 14 14 14 14 14 14 14 14
16 16 16 15 15 15 15 15 15 15 15 15 15 15 15 15 15 15 15 15 15 15 15 15 15 15 15 15 15 15 14 14 14 14 14 14 14 14 14 14 14 14 14
16 15 15 15 15 15 15 15 15 15 15 15 15 14 14 14 14 14 15 14 15 15 14 14 14 14 14 14 14 14 14 14 14 14 14 14 14 14 14 14 14 14 14
15 15 15 15 15 15 15 15 15 15 15 14 14 14 14 14 14 14 14 14 14 14 14 14 14 14 14 14 14 14 14 14 14 14 13 13 14 14 14 14 14 14 14
15 14 14 14 14 14 14 15 14 14 14 14 14 14 14 14 14 14 14 14 14 14 14 13 13 14 14 13 13 13 13 13 13 13 13 13 13 13 13 13 13 13 13
14 14 14 14 14 14 14 14 14 14 14 14 14 13 14 14 14 14 14 14 13 13 13 13 13 13 13 13 13 13 13 13 13 13 13 13 13 13 13 13 13 13 13
14 14 14 14 14 14 14 14 14 14 14 14 13 13 13 13 13 13 13 13 13 13 13 13 13 13 13 13 13 13 13 12 12 12 12 13 13 13 13 13 13 13 13
14 14 14 13 13 13 13 13 13 14 13 13 13 13 13 13 13 13 13 13 13 13 13 13 13 13 13 12 12 12 12 12 12 12 12 12 12 12 12 12 12 13 13
14 14 13 13 13 13 13 13 13 13 13 13 13 13 13 12 12 12 12 12 12 13 12 12 12 12 13 12 12 12 12 12 12 12 12 12 12 12 12 12 12 12 12
14 13 13 13 13 13 13 13 13 13 13 12 12 12 12 12 12 12 12 12 12 12 12 12 12 12 12 12 12 12 12 11 11 11 12 12 12 12 11 11 12 12 12
Wind_Speed
0 1 1 0 1 1 1 2 1 1 2 2 3 3 3 3 3 3 5 10 11 11 11 11 11 11 12 12 12 12 12 13 12 11 10 10 11 11 11 11 10 10 9
1 1 0 0 0 0 1 1 1 2 2 1 2 2 2 3 3 3 5 8 10 10 10 10 10 11 12 12 12 12 12 13 12 12 11 11 11 11 12 12 12 11 11
1 0 0 1 0 1 0 0 1 1 2 2 3 3 2 3 3 4 5 6 8 9 10 10 11 11 11 12 12 12 11 12 12 12 12 12 12 11 12 12 12 12 11
1 1 0 1 0 0 0 0 0 1 1 2 2 3 3 3 4 4 5 6 7 7 9 10 11 12 11 12 12 11 11 11 12 12 12 12 12 11 11 12 12 12 12
1 1 0 1 1 0 0 1 0 1 2 2 3 3 3 3 3 4 4 5 6 7 8 9 10 11 11 11 12 11 11 11 11 11 12 13 12 12 11 11 12 12 12
1 1 0 0 1 0 1 1 1 1 2 3 3 3 3 4 3 3 4 4 4 6 6 8 8 8 10 11 10 10 11 11 10 10 10 11 11 11 11 11 11 11 11
2 1 1 0 1 1 0 1 1 2 2 2 2 2 2 3 2 2 3 2 3 4 5 6 7 7 7 10 11 10 10 10 10 10 10 10 10 11 10 10 10 11 11
2 1 1 1 0 0 0 1 1 1 2 1 1 1 1 1 2 2 2 3 2 2 2 4 5 7 7 7 8 10 10 10 10 10 10 10 11 10 10 11 11 10 10
2 2 1 1 1 0 0 1 1 2 2 2 1 1 1 1 1 1 2 1 1 2 2 2 4 6 7 7 8 10 10 10 11 11 10 10 10 10 10 10 11 11 11
2 2 2 1 1 1 0 1 0 2 2 3 2 2 2 1 1 1 1 1 2 2 2 2 3 4 6 7 8 10 11 11 10 11 11 10 10 11 11 11 11 12 11
1 2 2 2 1 1 1 1 1 1 2 2 2 2 2 2 2 1 2 2 2 2 2 2 2 3 6 7 8 9 11 11 11 10 9 10 11 11 11 11 11 12 12
1 2 2 2 2 1 1 1 2 2 3 3 3 3 2 2 2 2 3 3 2 2 1 1 2 2 4 6 7 9 11 12 12 11 10 10 10 10 11 11 11 11 12
1 2 3 2 2 2 1 2 1 2 2 3 3 3 3 3 2 2 2 2 3 2 1 2 1 1 4 6 7 10 11 12 12 12 11 11 10 9 9 10 11 11 11
2 2 2 1 2 2 3 2 2 2 2 3 3 3 3 3 3 2 1 2 3 2 2 1 1 1 2 5 8 10 9 11 11 11 11 11 10 9 9 9 10 11 11
1 1 1 1 1 2 2 2 1 2 2 2 3 3 3 3 3 3 2 1 2 3 3 2 1 0 1 2 6 7 7 10 11 12 12 11 10 10 10 10 10 10 11
2 2 1 1 1 1 2 3 2 2 2 2 2 3 4 3 4 3 3 2 2 3 2 2 1 0 0 1 3 4 6 8 10 11 11 10 10 10 9 9 9 9 9
2 2 2 2 2 2 2 2 3 2 2 2 3 3 3 4 4 4 3 3 3 2 2 2 1 1 1 1 2 3 5 6 7 9 10 11 11 10 10 9 9 9 9
1 1 2 2 3 3 2 3 3 4 3 2 3 3 4 3 4 4 4 4 3 3 2 2 2 2 1 2 2 2 2 3 4 7 9 10 11 11 10 10 10 9 9
2 2 2 3 3 4 4 3 3 4 4 3 3 3 3 3 4 3 4 4 3 3 1 1 2 1 1 1 0 1 1 0 1 4 6 8 10 11 11 11 10 10 9
2 2 2 2 3 3 3 4 4 4 4 4 3 3 3 3 3 4 4 4 4 3 2 2 2 1 1 1 0 1 1 1 1 1 2 5 7 9 10 11 11 10 10
1 1 2 3 3 3 4 5 4 4 3 3 3 3 3 3 4 4 3 4 5 4 3 2 2 2 1 1 1 1 2 2 2 2 1 2 4 4 6 9 10 11 11
2 2 2 3 4 4 7 8 6 5 4 3 3 3 3 2 3 3 4 4 4 4 3 2 3 2 2 2 1 2 2 2 2 1 1 2 1 2 4 6 9 11 11
1 1 2 2 3 4 5 6 7 4 3 3 2 2 4 4 3 3 4 4 4 5 4 3 4 4 3 3 2 2 3 3 3 2 2 3 2 2 2 4 9 11 11
1 1 1 1 1 3 4 5 6 3 3 3 2 2 2 3 4 4 4 4 3 3 4 3 3 4 3 2 2 3 3 3 3 2 2 2 2 2 2 2 7 11 11
1 1 1 1 1 1 2 4 4 3 3 4 3 2 1 1 3 5 3 3 4 4 5 4 3 3 4 4 3 2 2 2 3 2 2 2 2 2 2 2 4 8 10
1 1 1 1 1 0 1 2 3 2 3 3 3 2 2 2 3 4 3 4 5 5 5 5 4 4 4 4 4 3 3 3 2 2 2 1 2 1 1 1 1 3 5
Wind_Direction
79 90 123 329 259 223 175 173 190 185 215 231 229 211 220 225 225 184 168 172 178 183 188 197 203 208 209 207 208 210 210 207 206 205 204 207 206 203 201 202 203 203 205
67 62 106 113 312 1 147 160 196 203 215 223 237 241 240 231 218 194 175 177 183 187 193 198 204 207 207 205 206 208 208 206 205 205 207 208 208 205 204 206 207 207 208
38 8 231 153 112 301 122 157 229 223 225 228 227 233 235 235 228 197 188 183 188 196 200 205 207 206 207 207 208 209 208 206 204 202 205 206 206 206 206 208 209 208 208
358 342 352 75 44 274 89 186 224 268 268 254 237 236 229 220 221 204 197 193 191 193 199 206 208 207 209 211 209 208 207 205 204 202 204 204 206 207 206 208 210 209 210
350 340 29 71 331 179 139 282 37 266 263 260 249 233 239 229 223 216 204 198 189 186 185 194 202 205 208 211 211 209 208 205 203 205 207 206 206 208 208 208 208 209 210
339 2 35 273 320 71 39 9 347 276 275 259 265 244 247 238 221 223 218 198 186 190 183 186 193 201 204 206 207 206 204 202 201 201 202 202 203 204 204 205 206 205 206
357 17 354 325 330 72 64 316 290 278 277 277 283 275 260 252 214 209 226 194 182 175 174 177 186 187 193 203 204 202 198 197 198 197 196 195 195 198 198 201 203 204 206
338 349 19 326 349 30 43 314 310 297 281 264 261 270 260 261 271 243 216 197 192 165 179 189 182 181 185 179 192 196 197 196 195 194 194 194 197 198 201 206 205 204 207
346 354 332 331 335 307 139 271 297 281 282 277 253 252 251 242 281 272 247 213 187 191 199 184 183 190 192 178 180 188 191 196 199 198 198 198 198 199 203 207 207 209 211
1 359 336 344 334 339 0 286 285 297 292 304 296 271 287 330 257 279 286 243 219 213 214 221 202 186 187 177 174 175 186 192 195 200 200 200 202 205 208 211 212 214 213
15 22 27 12 10 346 345 326 337 318 317 311 306 302 299 300 281 264 276 277 259 236 216 220 205 186 182 176 172 178 185 191 195 195 197 203 206 209 212 216 219 218 214
56 33 41 20 6 355 346 345 354 338 327 319 320 313 305 291 297 279 277 275 270 267 270 239 215 195 168 167 182 181 189 193 194 195 199 203 208 213 214 217 219 220 219
53 47 39 27 356 344 345 344 354 354 347 334 329 326 318 305 299 290 287 287 289 274 250 254 228 182 178 167 176 180 192 194 192 195 200 204 207 212 217 220 220 221 223
36 71 61 18 352 339 344 348 353 348 353 329 329 337 319 317 309 300 287 277 292 279 261 257 262 184 145 162 172 181 186 187 191 194 200 206 209 214 219 223 224 222 223
2 68 59 18 353 335 339 338 341 333 340 329 325 330 323 314 314 317 308 292 275 280 284 268 289 327 119 141 169 182 179 188 194 199 203 206 209 214 220 223 224 222 223
0 11 18 357 330 332 334 328 320 328 319 326 325 340 333 323 319 320 312 304 286 270 277 285 280 266 158 228 187 188 187 193 197 197 200 204 208 210 213 216 216 219 221
11 355 340 329 328 334 326 320 317 315 310 323 325 331 322 317 324 315 322 321 319 313 293 294 299 283 219 235 203 209 201 186 187 196 202 207 207 206 209 210 212 214 216
359 360 357 345 338 343 336 320 318 324 313 311 316 322 319 324 328 328 328 320 321 303 273 297 318 300 254 208 204 227 216 194 184 203 207 208 208 208 208 207 207 210 211
13 14 9 356 347 349 340 328 322 315 319 316 314 318 319 329 333 335 327 319 318 317 322 288 291 309 297 264 203 284 296 180 222 199 206 209 207 207 206 207 205 204 206
35 10 359 350 341 344 340 335 327 312 320 328 335 336 336 338 338 325 319 325 320 320 310 293 277 281 272 276 159 281 300 283 275 264 219 211 206 209 209 208 205 205 207
356 357 358 0 349 353 358 352 330 313 318 331 342 344 352 21 23 357 340 343 331 318 308 301 298 297 289 295 270 260 277 285 268 274 272 242 196 201 208 210 207 203 204
357 6 4 8 358 7 20 15 354 330 333 339 335 340 336 25 21 4 356 350 344 318 315 303 294 293 294 281 282 274 276 272 284 280 280 290 253 219 217 203 198 194 194
339 3 11 14 18 26 19 8 358 342 335 326 320 318 321 351 9 356 341 327 323 319 304 278 285 286 284 290 281 285 284 267 265 268 266 273 273 249 241 209 189 187 193
336 3 348 359 346 12 15 4 352 324 314 316 322 315 324 345 350 354 332 334 323 314 294 284 273 280 286 295 271 261 271 273 267 258 234 247 259 251 261 185 189 184 188
309 310 311 322 328 15 12 359 356 328 325 318 308 331 345 5 5 348 330 324 323 320 320 321 306 286 284 277 266 262 260 265 275 260 236 231 247 262 244 229 197 189 189
290 297 321 321 304 313 74 3 344 325 326 329 331 343 30 19 357 350 333 317 310 315 323 318 308 285 267 265 255 228 231 246 269 275 249 246 248 257 264 243 190 195 198
Height
1522 1522 1523 1523 1524 1524 1524 1525 1526 1526 1527 1528 1529 1530 1530 1531 1531 1532 1532 1532 1532 1533 1534 1534 1535 1536 1537 1537 1539 1540 1541 1542 1543 1544 1546 1547 1548 1549 1550 1552 1553 1554 1556
1522 1522 1522 1522 1523 1523 1523 1524 1525 1525 1526 1526 1527 1528 1529 1529 1530 1530 1530 1530 1530 1531 1532 1533 1533 1534 1534 1535 1536 1538 1539 1540 1541 1542 1543 1545 1546 1547 1548 1550 1551 1552 1554
1521 1521 1521 1521 1522 1522 1523 1523 1523 1524 1525 1525 1526 1526 1527 1528 1528 1528 1528 1528 1528 1529 1529 1530 1531 1531 1532 1533 1534 1535 1536 1537 1539 1540 1541 1542 1543 1545 1546 1547 1549 1550 1552
1521 1521 1521 1521 1521 1522 1522 1522 1522 1523 1523 1524 1524 1525 1525 1526 1526 1526 1527 1527 1527 1527 1527 1527 1528 1529 1530 1530 1532 1533 1533 1535 1536 1537 1538 1540 1541 1542 1543 1545 1546 1547 1549
1520 1520 1520 1520 1521 1521 1522 1522 1521 1522 1522 1522 1523 1523 1523 1524 1524 1524 1525 1525 1525 1525 1525 1525 1525 1526 1527 1528 1529 1530 1530 1532 1533 1534 1535 1537 1538 1539 1541 1542 1543 1545 1547
1519 1519 1520 1520 1520 1521 1521 1521 1521 1521 1521 1521 1521 1521 1521 1522 1522 1523 1523 1523 1523 1523 1523 1522 1523 1523 1523 1524 1525 1526 1527 1528 1530 1531 1532 1533 1535 1536 1538 1539 1540 1542 1544
1519 1519 1519 1519 1520 1520 1520 1520 1520 1519 1520 1520 1520 1520 1520 1520 1520 1521 1521 1521 1521 1521 1520 1520 1520 1520 1521 1521 1522 1523 1524 1525 1526 1528 1529 1530 1531 1533 1535 1536 1538 1539 1541
1518 1518 1518 1518 1519 1519 1519 1519 1518 1518 1519 1519 1519 1518 1519 1520 1518 1519 1519 1519 1519 1519 1518 1518 1518 1518 1518 1518 1519 1520 1521 1522 1523 1525 1526 1527 1529 1530 1532 1533 1535 1536 1538
1517 1517 1517 1517 1518 1518 1518 1518 1517 1517 1518 1518 1518 1518 1518 1517 1517 1517 1516 1517 1517 1516 1515 1515 1515 1515 1515 1515 1516 1517 1518 1519 1521 1522 1523 1524 1526 1527 1529 1530 1532 1533 1535
1516 1517 1517 1517 1517 1517 1517 1517 1517 1517 1517 1517 1517 1517 1517 1517 1517 1515 1515 1515 1515 1514 1513 1513 1512 1512 1513 1513 1513 1514 1515 1516 1517 1519 1520 1521 1523 1524 1526 1527 1529 1530 1532
1516 1516 1516 1516 1516 1516 1516 1516 1516 1516 1516 1516 1516 1515 1515 1515 1515 1515 1514 1513 1513 1512 1511 1510 1510 1510 1510 1510 1510 1511 1512 1513 1514 1515 1517 1518 1520 1521 1523 1524 1526 1527 1529
1516 1516 1515 1515 1515 1515 1515 1515 1515 1515 1514 1514 1514 1514 1514 1514 1513 1513 1512 1511 1510 1510 1509 1508 1507 1507 1507 1507 1508 1508 1509 1510 1511 1512 1513 1514 1516 1518 1519 1521 1522 1524 1525
1516 1515 1515 1514 1514 1514 1514 1514 1514 1513 1513 1513 1513 1512 1512 1512 1511 1511 1510 1509 1508 1508 1507 1506 1505 1504 1504 1504 1504 1505 1505 1506 1507 1508 1510 1511 1513 1514 1516 1518 1519 1521 1522
1515 1514 1514 1514 1513 1513 1513 1513 1513 1512 1512 1512 1512 1511 1510 1510 1509 1509 1508 1507 1506 1505 1505 1504 1503 1502 1502 1501 1502 1502 1502 1503 1504 1505 1506 1508 1509 1511 1512 1514 1515 1517 1518
1515 1514 1513 1513 1513 1512 1512 1512 1511 1511 1511 1510 1510 1509 1508 1508 1508 1507 1507 1506 1506 1504 1503 1502 1501 1501 1500 1500 1500 1500 1500 1501 1502 1503 1503 1505 1506 1507 1508 1510 1511 1513 1514
1514 1513 1513 1512 1511 1511 1511 1511 1510 1510 1509 1509 1508 1507 1506 1506 1505 1505 1504 1504 1503 1503 1501 1500 1500 1499 1499 1498 1498 1498 1498 1498 1499 1500 1500 1502 1503 1504 1505 1506 1507 1509 1510
1513 1512 1511 1511 1510 1510 1510 1509 1508 1508 1508 1507 1506 1506 1505 1504 1503 1503 1502 1501 1501 1501 1499 1498 1498 1498 1497 1497 1496 1496 1496 1496 1496 1496 1497 1498 1499 1500 1501 1502 1503 1505 1506
1512 1511 1510 1509 1509 1509 1508 1508 1507 1507 1506 1505 1505 1504 1503 1502 1501 1501 1500 1499 1499 1499 1498 1497 1496 1496 1495 1495 1494 1494 1494 1494 1493 1494 1494 1495 1495 1496 1497 1498 1499 1501 1502
1511 1510 1509 1508 1508 1507 1506 1506 1506 1505 1505 1504 1503 1502 1501 1501 1500 1499 1498 1497 1497 1497 1496 1495 1494 1494 1493 1492 1492 1491 1491 1491 1491 1491 1492 1491 1492 1492 1493 1494 1495 1496 1498
1510 1509 1508 1507 1506 1505 1505 1504 1504 1504 1503 1502 1501 1500 1499 1499 1498 1497 1497 1496 1495 1495 1494 1493 1492 1492 1491 1490 1490 1489 1489 1489 1489 1489 1489 1489 1489 1489 1490 1490 1491 1492 1493
1509 1508 1507 1506 1505 1504 1503 1503 1502 1502 1501 1500 1500 1499 1498 1497 1496 1495 1495 1494 1493 1492 1492 1491 1490 1490 1489 1488 1488 1487 1487 1486 1486 1487 1486 1486 1485 1485 1486 1486 1487 1488 1489
1508 1507 1505 1505 1504 1502 1502 1501 1500 1500 1499 1498 1497 1497 1496 1495 1494 1494 1493 1492 1492 1491 1490 1489 1488 1487 1486 1486 1486 1485 1485 1484 1484 1484 1484 1483 1483 1482 1482 1483 1483 1484 1486
1507 1506 1504 1504 1502 1501 1501 1500 1499 1498 1497 1496 1496 1495 1494 1494 1492 1491 1490 1490 1489 1489 1488 1487 1486 1485 1484 1484 1483 1483 1482 1482 1481 1481 1481 1480 1480 1479 1479 1480 1480 1481 1482
1506 1505 1504 1502 1502 1501 1500 1499 1498 1497 1496 1495 1494 1493 1492 1491 1490 1489 1488 1487 1486 1486 1485 1484 1483 1482 1482 1481 1480 1480 1479 1479 1478 1478 1478 1478 1478 1477 1477 1477 1477 1478 1479
1505 1504 1503 1502 1501 1499 1498 1497 1496 1495 1494 1493 1492 1491 1490 1489 1488 1487 1486 1484 1483 1482 1482 1481 1480 1479 1478 1478 1478 1477 1476 1476 1475 1475 1475 1475 1475 1475 1474 1474 1475 1476 1477
1503 1503 1502 1501 1500 1498 1497 1496 1495 1493 1492 1491 1490 1490 1489 1488 1486 1485 1484 1482 1481 1480 1479 1477 1477 1476 1476 1475 1475 1474 1473 1473 1473 1472 1472 1473 1472 1472 1472 1472 1472 1473 1474